| time (UTC) | temp C | wind direction | speed KPH | gust KPH | rain 1hr cm | rain 24hr cm | rain mn cm | humidity % | barometer mb |
| 20260505234426 | 18 | 0 | 0.0 | 0.0 | 0.00 | 0.00 | 0.00 | 58 | 1015.0 |
| 20260505232425 | 18 | 0 | 0.0 | 0.0 | 0.00 | 0.00 | 0.00 | 58 | |
| 20260505230425 | 18 | 0 | 0.0 | 0.0 | 0.00 | 0.00 | 0.00 | 58 | |
| 20260505224425 | 18 | 0 | 0.0 | 0.0 | 0.00 | 0.00 | 0.00 | 58 | 1015.3 |
| 20260505222425 | 18 | 0 | 0.0 | 0.0 | 0.00 | 0.00 | 0.00 | 59 | 1015.4 |
| 20260505220426 | 18 | 0 | 0.0 | 0.0 | 0.00 | 0.00 | 0.00 | 59 | |
| 20260505212426 | 18 | 0 | 0.0 | 3.2 | 0.00 | 0.00 | 0.00 | 58 | 1015.4 |
| 20260505210425 | 19 | 0 | 0.0 | 0.0 | 0.00 | 0.00 | 0.00 | 56 | |
| 20260505204425 | 18 | 0 | 0.0 | 1.6 | 0.00 | 0.00 | 0.00 | 58 | 1015.4 |
| 20260505202425 | 18 | 0 | 0.0 | 1.6 | 0.00 | 0.00 | 0.00 | 62 | 1015.5 |
| 20260505200427 | 18 | 0 | 0.0 | 1.6 | 0.00 | 0.00 | 0.00 | 60 | |
| 20260505194425 | 18 | 0 | 0.0 | 0.0 | 0.00 | 0.00 | 0.00 | 59 | 1015.6 |
| 20260505192426 | 18 | 0 | 0.0 | 0.0 | 0.00 | 0.00 | 0.00 | 59 | |
| 20260505190425 | 17 | 135 | 0.0 | 1.6 | 0.00 | 0.00 | 0.00 | 63 | |
| 20260505184425 | 16 | 67 | 0.0 | 1.6 | 0.00 | 0.00 | 0.00 | 64 | 1015.6 |
| 20260505182426 | 16 | 0 | 0.0 | 0.0 | 0.00 | 0.00 | 0.00 | 67 | 1015.4 |
| 20260505180426 | 15 | 0 | 0.0 | 0.0 | 0.00 | 0.00 | 0.00 | 67 | |
| 20260505174426 | 15 | 0 | 0.0 | 0.0 | 0.00 | 0.00 | 0.00 | 66 | |
| 20260505172428 | 15 | 0 | 0.0 | 0.0 | 0.00 | 0.00 | 0.00 | 65 | 1015.3 |
| 20260505170427 | 15 | 0 | 0.0 | 0.0 | 0.00 | 0.00 | 0.00 | 66 | |
| 20260505164428 | 14 | 0 | 0.0 | 0.0 | 0.00 | 0.00 | 0.00 | 67 | |
| 20260505160425 | 13 | 180 | 1.6 | 3.2 | 0.00 | 0.00 | 0.00 | 72 | |
| 20260505152426 | 12 | 360 | 1.6 | 4.8 | 0.00 | 0.00 | 0.00 | 76 | 1014.6 |
| 20260505140428 | 11 | 0 | 0.0 | 0.0 | 0.00 | 0.00 | 0.00 | 84 | 1014.1 |
| 20260505124426 | 11 | 0 | 0.0 | 0.0 | 0.00 | 0.00 | 0.00 | 85 | 1014.6 |
| 20260505122430 | 11 | 0 | 0.0 | 0.0 | 0.00 | 0.00 | 0.00 | 84 | |
| 20260505120425 | 11 | 0 | 0.0 | 0.0 | 0.00 | 0.00 | 0.00 | 87 | 1014.4 |
| 20260505114425 | 11 | 0 | 0.0 | 0.0 | 0.00 | 0.00 | 0.00 | 87 | |
| 20260505112426 | 11 | 0 | 0.0 | 0.0 | 0.00 | 0.00 | 0.00 | 84 | |
| 20260505110425 | 11 | 0 | 0.0 | 0.0 | 0.00 | 0.00 | 0.00 | 81 | 1014.6 |
| 20260505100426 | 11 | 0 | 0.0 | 0.0 | 0.00 | 0.00 | 0.00 | 79 | |
| 20260505094426 | 12 | 0 | 0.0 | 0.0 | 0.00 | 0.00 | 0.00 | 76 | |
| 20260505092425 | 12 | 0 | 0.0 | 0.0 | 0.00 | 0.00 | 0.00 | 72 | 1014.5 |
| 20260505090425 | 12 | 0 | 0.0 | 0.0 | 0.00 | 0.00 | 0.00 | 69 | 1014.7 |
| 20260505084426 | 12 | 0 | 0.0 | 1.6 | 0.00 | 0.00 | 0.00 | 69 | 1015.1 |
| 20260505080426 | 12 | 0 | 0.0 | 1.6 | 0.00 | 0.00 | 0.00 | 70 | 1015.2 |
| 20260505074426 | 12 | 0 | 0.0 | 0.0 | 0.00 | 0.00 | 0.00 | 74 | 1015.2 |
| 20260505072426 | 12 | 0 | 0.0 | 1.6 | 0.00 | 0.00 | 0.00 | 76 | 1014.9 |
| 20260505070426 | 12 | 0 | 0.0 | 0.0 | 0.00 | 0.00 | 0.00 | 76 | |
| 20260505064425 | 12 | 0 | 0.0 | 0.0 | 0.00 | 0.00 | 0.00 | 78 | |
| 20260505062425 | 13 | 0 | 0.0 | 0.0 | 0.00 | 0.00 | 0.00 | 77 | 1014.9 |
| 20260505060425 | 13 | 0 | 0.0 | 0.0 | 0.00 | 0.00 | 0.00 | 75 | |
| 20260505052425 | 13 | 0 | 0.0 | 1.6 | 0.00 | 0.00 | 0.00 | 73 | |
| 20260505050425 | 13 | 0 | 0.0 | 0.0 | 0.00 | 0.00 | 0.00 | 73 | |
| 20260505040425 | 14 | 0 | 0.0 | 0.0 | 0.00 | 0.00 | 0.00 | 67 | 1014.0 |
| 20260505034428 | 15 | 22 | 0.0 | 1.6 | 0.00 | 0.00 | 0.00 | 64 | 1013.9 |
| 20260505032426 | 15 | 0 | 0.0 | 1.6 | 0.00 | 0.00 | 0.00 | 59 | |
| 20260505024427 | 16 | 0 | 0.0 | 0.0 | 0.00 | 0.00 | 0.00 | 56 | |
| 20260505022426 | 16 | 0 | 0.0 | 3.2 | 0.00 | 0.00 | 0.00 | 55 | |
| 20260505020425 | 17 | 0 | 0.0 | 3.2 | 0.00 | 0.00 | 0.00 | 52 | |
| 20260505014426 | 17 | 149 | 1.6 | 3.2 | 0.00 | 0.00 | 0.00 | 52 | |
| 20260505012426 | 18 | 53 | 0.0 | 3.2 | 0.00 | 0.00 | 0.00 | 51 | |
| 20260505010426 | 18 | 0 | 0.0 | 1.6 | 0.00 | 0.00 | 0.00 | 51 | |
| 20260505004426 | 18 | 62 | 0.0 | 3.2 | 0.00 | 0.00 | 0.00 | 52 | |
| 20260505002426 | 18 | 360 | 1.6 | 1.6 | 0.00 | 0.00 | 0.00 | 54 | 1013.9 |
| 20260505000425 | 18 | 0 | 0.0 | 0.0 | 0.00 | 0.00 | 0.00 | 53 |